Regional Weather Roundup
Issued by NWS Charleston, SC

Current Version | Previous Version | Text Only | Print | Product List | Glossary Off
Versions: 1 2 3 4 5 6 7 8 9 10 11 12 13 14 15 16 17 18 19 20 21 22 23 24 25 26 27 28 29 30 31 32 33 34 35 36 37 38 39 40 41 42 43 44 45 46 47 48 49 50

542
ASUS42 KCHS 082312
RWRCHS

REGIONAL WEATHER ROUNDUP
NATIONAL WEATHER SERVICE CHARLESTON SC
600 PM EST MON FEB 08 2016

NOTE: "FAIR" INDICATES FEW OR NO CLOUDS BELOW 12,000 FEET WITH NO
SIGNIFICANT WEATHER AND/OR OBSTRUCTIONS TO VISIBILITY.

NOT ALL STATIONS ARE QUALITY CONTROLLED BY THE NATIONAL
WEATHER SERVICE. USE DATA WITH CAUTION...ESPECIALLY
DEWPOINT OBSERVATIONS.

NOTICE: OBSERVATIONS FOR THE SAVANNAH-HILTON HEAD INTERNATIONAL AIRPORT
/KSAV/ HAVE BEEN TEMPORARILY REMOVED DUE TO AN ERRONEOUS TEMPERATURE
SENSOR. THE OBSERVATION WILL BE REINTRODUCED ONCE REPAIRS ARE COMPLETE.

SCZ027-030-031-034>040-042>050-090000-
...SOUTHEAST SOUTH CAROLINA...

CITY           SKY/WX    TMP DP  RH WIND       PRES   REMARKS
N CHARLESTON   PTCLDY    55  38  52 W12       29.71S
WATERFRONT PRK   N/A     56  43  61 S14       29.56F
MOUNT PLEASANT FAIR      55  39  54 S13G18    29.71F
JOHNS ISLAND   FAIR      55  43  62 S12G18    29.71F
PINOPOLIS        N/A     57  36  44 S7        29.62R
MONCKS CORNER  RAIN      46  39  76 NW7       29.75R
SUMMERVILLE    LGT RAIN  48  45  87 W10G28    29.77R
BEAUFORT MCAS  LGT RAIN  55  38  52 NW18G35   29.74R
BEAUFORT ARPT  MOCLDY    54  43  66 S8        29.70S
HILTON HEAD IS CLOUDY    55  43  62 S6        29.72F
WALTERBORO     RAIN      50  45  81 W9        29.77R
ALLENDALE      CLOUDY    46  45  93 CALM      29.73F

...SOUTHERN MIDLANDS AND PEE DEE...

CITY           SKY/WX    TMP DP  RH WIND       PRES   REMARKS
GEORGETOWN     NOT AVBL
KINGSTREE      NOT AVBL
ORANGEBURG     MOCLDY    47  41  80 SW6       29.73F
BARNWELL       FAIR      48  45  87 CALM      29.73F
AIKEN          FAIR      46  32  57 SW14G26   29.74S
MANNING        LGT RAIN  46  41  81 NW7       29.75R
COLUMBIA       PTCLDY    46  39  76 SW6       29.71S
SUMTER         MOCLDY    45  41  85 SW10      29.68F
FLORENCE       LGT RAIN  46  41  82 W13G22    29.74R
MYRTLE BEACH   CLEAR     54  36  50 SW15G21   29.70F
N MYRTLE BEACH CLEAR     52  41  66 SW23G29   29.68F

$$

GAZ063-065-086>088-099>101-113>116-118-119-134>141-150-090000-
...SOUTHEAST GEORGIA...

CITY           SKY/WX    TMP DP  RH WIND       PRES   REMARKS
SAVANNAH ARPT  CLOUDY    59  32  36 W15       29.74R
HUNTER AAF     DRIZZLE   59  34  38 W20G30    29.71
FORT STEWART   RAIN      54  41  62 W23G32    29.74R
STATESBORO     CLOUDY    52  42  67 SW7       29.75F
SYLVANIA       CLOUDY    47  47  99 S5        29.74F
CLAXTON        LGT RAIN  49  46  89 SW9G21    29.78R

...CSRA...CENTRAL AND FAR SOUTHEAST GEORGIA...

CITY           SKY/WX    TMP DP  RH WIND       PRES   REMARKS
THOMSON        PTCLDY    50  38  62 W7        29.78S
AUGUSTA-BUSH   MOCLDY    50  34  54 W7        29.73S
AUGUSTA-DANIEL CLEAR     50  32  50 SW6       29.73S
SWAINSBORO     MOCLDY    50  36  57 NW18G31   29.76R
VIDALIA        CLOUDY    48  43  81 SW7       29.75F
EASTMAN        FAIR      54  28  36 NW7       29.79R
HAZLEHURST     LGT RAIN  49  45  85 SW12G17   29.75F
ALMA           LGT RAIN  49  46  90 NW14      29.79R
WAYCROSS       HVY RAIN  53  50  91 NW21G30   29.77R
JESUP          LGT RAIN  55  46  71 NW15G23   29.76R
BAXLEY         LGT RAIN  50  46  87 NW10      29.78R
BRUNSWICK      CLOUDY    61  41  48 SW16G23   29.73F
SAINT SIMONS   MOCLDY    59  41  51 SW21      29.74F

$$

SCZ027-028-034-036>038-045-046-048>050-GAZ119-141-090000-
...LAKE AND SUPPLEMENTAL COASTAL OBSERVATIONS...

STATION/POSITION TIME  TEMP    WIND        PRES    WAVE   SWELL
                       AIR SEA DIR/SP/G            HT/PER HT/PER/DIR
                 (UTC) (F)     (DEG/KT/KT) (MB)    (FT/S) (FT/S/D)
WINYAH BAY       2145   54     220/ 15     1005.0
LAKE MURRAY      2200   49     220/  8/ 10 1005.4R
ACE BASIN NERRS  2145   56     180/  2     1006.0
FORT PULASKI     2200   60 52  210/  7/ 12 1006.4F
SAPELO ISLAND    2200   60     220/ 16     1007.0S

$$

ANZ835-935-AMZ111-154-330-350-352-354-370-450-454-472-090000-
...C-MAN AND BUOY OBSERVATIONS...

STATION/POSITION TIME  TEMP    WIND        PRES    WAVE   SWELL
                       AIR SEA DIR/SP/G            HT/PER HT/PER/DIR
                 (UTC) (F)     (DEG/KT/KT) (MB)    (FT/S) (FT/S/D)
BUOY 41004       2250   60 65  220/ 27/ 33 1005.8F   8/ 7   3/11
BUOY 41008       2250   57 55  200/ 14/ 16 1006.9F   3/15   2/ 20/15
FOLLY BEACH CMAN 2300   56     200/ 20/ 23 1005.8F
CAPERS NEARSHORE 2208   55     220/ 19/ 25 1005.7F
FRIPP NEARSHORE  2200   56     200/ 21/ 25 1006.0F


STATION/POSITION TIME  TEMP    WIND        PRES    WAVE   SWELL
                       AIR SEA DIR/SP/G            HT/PER HT/PER/DIR
                 (UTC) (F)     (DEG/KT/KT) (MB)    (FT/S) (FT/S/D)
5E ST. MARYS GA  2221      55                N/A     4/15   3/100/15
FRYING PAN BUOY  2200   58 61  230/ 21/ 27 1006.1F
BUOY 41025       2250   51 74   10/  2/  6 1007.2F  10/13  10/ 70/13
CAPE LOOKOUT NC  NOT AVBL
BUOY 41002       2250   63 69  250/ 21/ 27   N/A    13/15  11/320/15
BUOY 41010       2220   63 72              1012.3F
ST AUGUSTINE FL  2300   60 58  230/ 10/ 12 1010.6F


$$




USA.gov is the U.S. government's official web portal to all federal, state and local government web resources and services.